SCP
0 0 0 0 0 0 0 0 0 0 0 0 0 0 0 0 0 0 0 1 1 1 1 0 0 0 0 0 0 0 0 0 0 0 0 0 0 0 0 0 0 0 0
0 0 0 0 0 0 0 0 0 0 0 0 0 0 0 0 0 0 1 1 1 1 0 0 0 0 0 0 0 0 0 0 0 0 0 0 0 0 0 0 0 0 0
0 0 0 0 0 0 0 0 0 0 0 0 0 0 0 0 0 0 1 1 0 0 0 0 0 0 0 0 0 0 0 0 0 0 0 0 0 0 0 0 0 0 0
0 0 0 0 0 0 0 0 0 0 0 0 0 0 0 0 0 0 0 0 0 0 0 0 0 0 0 0 0 0 0 0 0 0 0 0 0 0 0 0 0 0 0
0 0 0 1 1 1 1 0 0 0 0 0 0 0 0 0 0 0 0 0 0 0 0 0 0 0 0 0 0 0 0 0 0 0 0 0 0 0 0 0 0 0 0
0 0 0 1 1 1 1 1 1 0 0 0 0 0 0 0 0 0 0 0 0 0 0 0 0 0 0 0 0 0 0 0 0 0 0 0 0 0 0 0 0 0 0
0 0 0 1 1 1 1 1 1 1 0 1 0 0 0 0 0 0 0 0 0 0 0 0 0 0 0 0 0 0 0 0 0 0 0 0 0 0 0 0 0 0 0
0 0 0 1 1 1 1 1 1 1 1 1 1 1 1 1 0 0 0 0 0 0 0 0 0 0 0 0 0 0 0 0 0 0 0 0 0 0 0 0 0 0 0
0 0 0 1 1 1 1 1 1 1 1 1 1 1 1 1 1 0 0 0 0 0 0 0 0 0 0 0 0 0 0 0 0 0 0 0 0 0 0 0 0 0 0
0 0 0 1 1 1 1 1 1 1 1 1 1 1 1 1 0 0 0 0 0 0 0 0 0 0 0 0 0 0 0 0 0 0 0 0 0 0 0 0 0 0 0
0 0 0 1 1 1 1 1 1 1 1 1 1 1 0 0 0 0 0 0 0 0 0 0 0 0 0 0 0 0 0 0 0 0 0 0 0 0 0 0 0 0 0
0 0 0 0 1 1 1 1 1 1 1 1 1 0 0 0 0 0 0 0 0 0 0 0 0 0 0 0 0 0 0 0 0 0 0 0 0 0 0 0 0 0 0
0 0 0 0 0 1 1 1 1 1 1 1 1 0 0 0 0 0 0 0 0 0 0 0 0 0 0 0 0 0 0 0 0 0 0 0 0 0 0 0 0 0 0
0 0 0 0 0 0 0 1 1 1 1 1 1 0 0 0 0 0 0 0 0 0 0 0 0 0 0 0 0 0 0 0 0 0 0 0 0 0 0 0 0 0 0
0 0 0 0 0 0 0 0 0 1 1 1 0 0 0 0 0 0 0 0 0 0 0 0 0 0 0 0 0 0 0 0 0 0 0 0 0 0 0 0 0 0 0
0 0 0 0 0 0 0 0 0 0 1 1 1 0 0 0 0 0 0 0 0 0 0 0 0 0 0 0 0 0 0 0 0 0 0 0 0 0 0 0 0 0 0
0 0 0 0 0 0 0 0 0 0 0 0 0 0 0 0 0 0 0 0 0 0 0 0 0 0 0 0 0 0 0 0 0 0 0 0 0 0 0 0 0 0 0
0 0 0 0 0 0 0 0 0 0 0 0 0 0 0 0 0 0 0 0 0 0 0 0 0 0 0 0 0 0 0 0 0 0 0 0 0 0 0 0 0 0 0
0 0 0 0 0 0 0 0 0 0 0 0 0 0 0 0 0 0 0 0 0 0 0 0 0 0 0 0 0 0 0 0 0 0 0 0 0 0 0 0 0 0 0
0 0 0 0 0 0 0 0 0 0 0 0 0 0 0 0 0 0 0 0 0 0 0 0 0 0 0 0 0 0 0 0 0 0 0 0 0 0 0 0 0 0 0
0 0 0 0 0 0 0 0 0 0 0 0 0 0 0 0 0 0 0 0 0 0 0 0 0 0 0 0 0 0 0 0 0 0 0 0 0 0 0 0 0 0 0
0 0 0 0 0 0 0 0 0 0 0 0 0 0 0 0 0 0 0 0 0 0 0 0 0 0 0 0 0 0 0 0 0 0 0 0 0 0 0 0 0 0 0
0 0 0 0 0 0 0 0 0 0 0 0 0 0 0 0 0 0 0 0 0 0 0 0 0 0 0 0 0 0 0 0 0 0 0 0 0 0 0 0 0 0 0
0 0 0 0 0 0 0 0 0 0 0 0 0 0 0 0 0 0 0 0 0 0 0 0 0 0 0 0 0 0 0 0 0 0 0 0 0 0 0 0 0 0 0
0 0 0 0 0 0 0 0 0 0 0 0 0 0 0 0 0 0 0 0 0 0 0 0 0 0 0 0 0 0 0 0 0 0 0 0 0 0 0 0 0 0 0
0 0 0 0 0 0 0 0 0 0 0 0 0 0 0 0 0 0 0 0 0 0 0 0 0 0 0 0 0 0 0 0 0 0 0 0 0 0 0 0 0 0 0
Wind_Speed
6 9 14 15 15 14 13 13 12 12 12 11 11 10 10 9 9 8 8 8 10 11 12 12 11 11 11 10 10 9 8 9 10 10 10 11 11 12 12 11 9 7 11
8 12 15 15 15 15 13 13 12 11 11 11 10 10 9 8 8 7 7 9 10 11 11 10 9 9 9 9 8 7 7 8 9 9 8 7 10 12 12 10 9 7 12
10 12 14 15 15 14 13 13 13 13 12 11 10 9 9 8 7 7 8 9 10 10 9 8 7 7 7 7 6 6 7 8 9 8 4 2 5 10 11 10 9 10 11
11 11 12 14 15 15 15 14 14 13 13 12 10 9 9 8 8 8 9 9 10 9 7 6 6 6 6 5 5 5 6 7 9 6 2 1 2 8 9 9 9 9 9
9 10 11 14 14 15 14 15 14 13 13 12 12 11 10 9 8 8 9 9 9 8 7 6 5 5 4 5 5 5 6 7 8 6 5 4 3 6 8 8 7 7 7
8 8 10 15 15 15 14 14 14 14 13 13 13 12 12 10 9 9 9 8 7 7 5 5 5 4 4 4 5 5 7 8 8 5 5 4 3 6 7 7 6 5 5
8 7 10 15 15 15 16 16 15 14 14 13 13 13 12 12 11 10 8 8 7 6 5 5 5 4 4 4 5 6 8 8 6 5 5 4 4 7 7 6 4 4 5
8 7 8 14 14 14 15 15 15 14 13 13 13 13 13 13 12 11 9 8 7 6 6 6 5 4 4 4 5 6 9 8 7 6 5 4 4 5 5 5 5 4 5
6 7 7 9 11 13 14 14 14 13 13 12 12 12 13 13 12 10 9 9 8 7 7 6 5 5 4 4 5 7 9 10 6 3 4 3 3 4 4 3 3 3 3
5 6 7 8 8 8 10 13 14 13 13 12 11 11 12 13 12 11 9 9 9 9 8 7 6 6 5 4 4 6 8 8 5 4 3 3 4 2 3 2 1 1 1
4 5 6 8 8 7 7 9 11 12 13 12 10 11 11 7 7 7 8 10 10 10 9 9 8 7 6 3 3 6 6 3 3 2 2 3 2 1 2 1 1 1 1
6 6 7 9 9 8 6 5 5 6 6 7 5 7 6 5 5 6 9 10 10 9 10 11 10 8 5 1 2 4 2 3 2 2 1 2 1 1 3 3 3 3 3
6 5 6 8 9 9 7 5 4 3 3 4 5 6 5 5 5 5 3 4 5 6 4 6 6 4 3 2 1 1 1 2 1 1 0 0 1 3 4 5 5 4 4
6 6 5 5 7 9 7 6 5 4 4 4 4 6 5 4 4 4 3 4 3 2 3 3 3 4 3 3 3 2 2 2 1 1 1 2 2 4 5 6 6 6 6
9 9 7 5 6 7 7 5 5 6 6 5 5 6 6 5 5 4 4 4 4 3 4 4 4 4 3 3 3 4 3 3 3 2 1 2 2 4 6 7 7 7 7
12 12 10 6 4 5 6 5 5 5 5 5 6 7 8 6 6 6 5 5 4 4 4 4 5 4 3 2 3 3 3 3 3 3 2 1 2 2 4 6 7 8 8
12 12 12 9 5 2 4 4 3 3 4 4 5 7 8 7 7 6 6 6 6 5 4 3 3 2 2 2 3 3 3 3 3 3 3 2 1 3 3 1 4 7 9
12 13 13 12 9 5 2 2 2 2 2 3 3 4 6 7 7 6 5 6 6 6 5 4 3 3 2 2 2 2 2 2 3 3 3 3 2 0 2 2 3 3 7
11 12 14 14 13 9 7 6 5 4 3 1 0 1 3 4 6 5 5 5 6 6 5 5 3 3 3 3 2 2 2 2 3 3 4 4 3 3 1 2 3 3 3
11 13 15 15 16 11 7 6 6 7 6 5 5 4 2 1 3 3 3 4 5 4 4 4 4 3 2 3 1 1 3 4 3 4 4 3 3 4 3 2 2 3 4
15 16 17 17 16 12 7 5 5 5 6 6 7 9 8 5 3 2 1 3 4 4 5 6 4 4 2 3 2 2 3 4 5 4 4 4 4 4 4 4 3 3 3
15 15 16 16 16 15 9 4 4 3 4 5 7 10 11 9 7 4 3 1 1 2 3 4 4 3 3 4 4 1 3 5 5 5 4 5 5 4 5 5 5 4 4
15 14 14 15 16 15 14 9 7 7 6 8 11 10 12 12 10 8 6 3 2 1 2 4 5 6 4 4 3 4 4 6 4 3 5 5 5 4 5 4 6 6 5
11 10 13 14 16 15 13 13 14 10 9 8 6 8 11 13 13 12 10 7 4 2 3 3 4 3 4 4 4 3 3 2 2 5 4 3 5 6 6 6 6 6 6
9 9 10 12 14 14 14 14 12 11 8 6 8 11 11 11 13 14 12 10 8 5 4 4 3 4 4 5 5 4 4 3 3 3 5 4 4 6 7 7 6 6 7
8 9 9 11 13 12 12 12 12 12 11 12 12 11 9 7 9 14 12 10 9 7 6 6 4 4 4 6 6 5 5 4 4 5 7 5 5 5 5 5 7 7 6
Wind_Direction
194 174 180 174 167 162 157 152 146 143 140 136 133 128 123 118 114 114 118 123 120 110 97 88 80 74 71 69 68 65 57 42 42 57 76 80 76 80 80 66 57 56 65
166 170 174 175 170 166 161 155 151 149 147 145 143 139 134 129 124 120 117 118 115 106 98 90 83 79 74 69 64 58 50 40 32 28 35 68 81 80 78 70 64 63 62
154 169 172 175 172 168 163 159 158 157 155 153 151 149 145 144 142 137 128 122 114 108 103 98 94 91 85 77 65 51 41 35 23 9 19 42 84 90 84 75 69 67 64
158 167 173 175 174 171 167 165 165 164 163 161 160 159 158 157 157 153 143 130 119 112 106 104 102 96 91 84 71 53 43 38 26 26 69 84 82 102 93 84 75 72 71
155 165 172 173 176 175 172 171 171 172 171 170 170 169 168 166 164 156 145 133 124 119 116 115 108 95 80 68 57 48 45 44 55 60 68 61 57 96 95 91 86 80 77
158 165 171 173 177 178 178 178 179 181 181 180 179 177 175 168 159 149 143 135 130 129 134 134 121 104 81 60 50 47 42 58 78 74 64 52 51 82 89 92 91 92 88
165 171 173 176 180 181 181 183 185 188 190 189 187 186 181 171 162 155 153 149 147 152 162 151 133 116 93 71 61 54 42 63 84 74 61 46 63 77 73 75 79 94 91
166 174 175 180 182 184 186 188 189 191 193 194 194 192 187 176 170 168 170 170 173 179 180 162 146 127 105 84 72 57 46 67 85 73 55 35 66 85 75 59 56 62 74
169 172 180 186 188 188 189 192 193 195 197 198 199 196 186 175 174 174 178 183 187 191 187 168 156 142 123 94 72 56 56 80 88 78 60 28 45 90 87 70 58 55 63
181 181 184 188 191 193 194 196 196 197 199 202 203 200 183 173 172 173 178 184 189 192 188 173 167 161 139 111 80 57 69 79 82 75 54 29 44 94 95 84 70 65 77
207 199 189 191 195 195 197 202 201 202 203 203 204 200 180 172 167 170 179 185 188 189 186 178 177 164 141 128 96 70 76 81 89 73 45 41 58 126 144 155 197 210 208
230 214 197 195 195 195 200 200 203 204 206 203 194 187 175 164 167 169 184 189 189 187 184 182 179 151 133 112 50 63 72 103 104 98 46 54 27 225 196 196 211 210 203
257 247 215 203 196 193 197 194 194 195 196 199 191 178 169 165 166 167 169 184 189 184 176 177 159 138 149 162 139 84 96 104 122 111 330 360 298 257 216 206 210 207 201
319 301 276 229 204 199 194 194 191 191 195 197 189 177 172 173 172 169 173 175 173 163 161 147 143 159 175 192 188 168 141 139 157 166 265 242 264 257 229 212 208 206 207
356 340 315 268 226 203 192 192 191 195 197 194 182 184 184 179 177 171 177 176 175 165 164 160 163 173 185 188 185 173 165 167 179 190 252 257 262 259 237 218 208 209 210
355 345 338 317 261 217 196 191 188 189 188 187 188 190 191 188 178 174 177 179 179 177 172 169 173 177 191 194 195 183 178 178 184 188 205 277 348 331 263 230 220 216 213
352 350 351 344 330 251 207 189 169 170 172 185 194 195 194 192 184 179 178 183 182 172 163 158 165 162 185 204 207 195 188 196 195 194 198 207 319 6 14 324 254 230 217
2 3 3 4 4 11 50 102 100 120 149 178 191 196 197 191 180 174 176 186 177 166 162 165 164 173 202 216 224 227 211 208 208 202 194 193 199 288 353 359 340 276 229
10 12 14 14 14 19 39 56 60 58 55 48 117 202 203 188 175 173 180 180 171 170 170 169 163 166 187 211 232 258 261 240 228 219 203 192 192 195 224 293 323 320 263
20 24 24 23 19 15 27 41 45 43 34 32 27 12 5 111 158 161 165 162 159 162 167 172 165 163 165 168 184 275 286 272 257 238 220 206 202 200 205 230 270 295 281
31 31 28 27 21 20 15 18 28 31 23 27 26 26 26 32 49 77 108 144 161 177 186 181 153 166 158 130 110 319 305 279 263 249 234 224 218 208 204 215 228 245 267
35 33 34 31 27 25 19 11 25 28 27 22 24 26 24 26 31 31 33 27 195 182 171 173 164 160 174 162 147 146 288 298 262 238 230 226 223 214 214 215 220 230 237
37 33 36 36 35 30 27 28 25 26 22 20 17 15 15 18 20 21 21 20 350 281 219 206 195 183 194 202 183 166 195 248 292 278 241 231 221 218 220 217 220 225 225
35 34 40 41 41 36 36 41 46 43 35 17 9 14 15 21 21 16 12 10 4 337 295 255 228 221 202 210 221 221 204 200 249 302 298 262 238 230 223 218 219 222 219
36 38 39 46 46 41 43 46 49 46 37 23 25 23 19 17 20 17 13 9 2 350 328 305 272 245 231 226 217 214 217 209 189 224 280 294 275 244 227 219 215 218 215
40 41 41 49 47 42 46 47 49 47 39 35 29 24 16 11 12 12 8 10 5 358 344 327 306 278 261 253 248 233 224 219 207 206 241 250 256 263 241 225 222 221 213